Location: Vaughan
(31.9146°N, 97.1736°W)
Time: 02:47:42
(UTC+00:00)

PSLV R/B - Pass Details

Date: 10 December 2025
Orbit: 562 x 588 km, 98.0° (Epoch: 12 January)

Event Time Altitude Azimuth Distance (km) Brightness Sun altitude
Rises 01:27:22 0° 177° (S) 2,734 7.0 -25.3°
Reaches altitude 10° 01:29:31 10° 182° (S) 1,843 6.1 -25.8°
Maximum altitude 01:33:25 52° 260° (W) 700 4.1 -26.6°
Enters shadow 01:34:07 46° 297° (WNW) 765 4.2 -26.7°
Exits shadow 01:38:11 - 340° (NNW) 2,204 6.5 -27.6°
Sets 01:39:32 0° 342° (NNW) 2,763 7.0 -27.9°
